Dewpoint
-22 -21 -20 -21 -19 -20 -20 -21 -22 -21 -21 -18 -12 -10 -11 -11 -11 -10 -9 -10 -10 -11 -11 -10 -8 -7 -5 -4 -3 -2 -0 1 2 4 7 9 11 12 13 13 12 13 12 13
-23 -19 -21 -22 -20 -20 -20 -19 -19 -18 -19 -16 -18 -10 -9 -9 -9 -9 -9 -10 -11 -11 -11 -11 -9 -8 -7 -5 -4 -3 -1 0 0 1 6 7 9 10 12 12 13 12 12 13
-19 -20 -23 -22 -20 -19 -21 -21 -19 -16 -15 -16 -14 -7 -9 -10 -10 -9 -9 -10 -11 -11 -11 -11 -10 -9 -8 -7 -5 -3 -2 -1 -0 2 4 6 8 10 12 12 13 12 12 12
-18 -22 -21 -23 -21 -19 -21 -22 -18 -15 -13 -13 -12 -3 -10 -13 -12 -10 -9 -10 -10 -11 -11 -11 -11 -10 -9 -8 -6 -4 -3 -1 -1 1 3 5 6 8 10 12 12 13 12 11
-18 -20 -19 -20 -18 -19 -19 -19 -19 -13 -11 -12 -11 -9 -10 -12 -11 -11 -12 -12 -12 -11 -11 -10 -10 -11 -10 -9 -7 -5 -4 -2 -1 -1 1 3 5 7 8 10 11 11 12 12
-18 -20 -19 -18 -20 -20 -22 -20 -20 -11 -12 -8 -10 -7 -6 -7 -8 -11 -13 -13 -13 -13 -12 -11 -11 -10 -10 -9 -8 -7 -5 -4 -2 -1 -0 1 3 6 7 9 10 11 12 11
-21 -21 -20 -19 -17 -19 -19 -17 -17 -16 -7 -7 -7 -8 -6 -10 -13 -14 -15 -15 -13 -14 -14 -14 -12 -11 -10 -10 -9 -7 -6 -5 -3 -2 -1 0 1 3 5 7 9 10 11 12
-20 -21 -18 -19 -15 -13 -17 -17 -10 -7 -7 -7 -8 -5 -5 -13 -16 -16 -16 -15 -15 -15 -15 -15 -14 -13 -13 -11 -9 -8 -7 -6 -4 -2 -2 -2 -0 2 3 5 8 9 10 11
-17 -18 -21 -17 -16 -16 -14 -14 -17 -8 -10 -8 -8 -5 -7 -16 -16 -16 -16 -16 -16 -16 -15 -15 -14 -13 -14 -12 -9 -8 -7 -7 -5 -4 -2 -2 -2 0 2 4 5 8 8 10
-18 -18 -19 -16 -17 -18 -16 -16 -11 -12 -10 -11 -7 -8 -10 -12 -13 -16 -16 -16 -16 -16 -15 -15 -14 -14 -14 -13 -11 -8 -8 -7 -6 -5 -3 -2 -2 -2 0 2 4 6 7 8
-18 -17 -19 -19 -11 -13 -14 -13 -13 -12 -13 -11 -10 -7 -9 -11 -13 -14 -16 -17 -17 -16 -15 -15 -14 -14 -14 -14 -12 -10 -8 -8 -7 -6 -5 -3 -2 -2 -2 -0 2 4 6 8
-16 -17 -16 -18 -13 -14 -14 -13 -14 -11 -14 -16 -12 -10 -17 -15 -15 -16 -15 -15 -16 -16 -15 -15 -14 -14 -14 -14 -12 -11 -9 -8 -7 -7 -6 -4 -3 -2 -2 -2 -0 2 5 7
-16 -15 -14 -18 -11 -13 -13 -13 -15 -15 -10 -9 -13 -13 -20 -19 -14 -15 -15 -13 -14 -15 -15 -14 -14 -13 -14 -13 -12 -10 -10 -8 -7 -7 -6 -6 -4 -3 -3 -2 -2 0 2 5
-14 -14 -12 -11 -13 -15 -10 -12 -14 -11 -10 -11 -13 -14 -15 -15 -11 -12 -12 -10 -11 -14 -14 -14 -13 -13 -14 -13 -12 -10 -9 -8 -7 -7 -6 -6 -5 -3 -3 -2 -2 -1 -0 3
-13 -12 -14 -14 -16 -17 -11 -9 -12 -11 -9 -9 -12 -10 -11 -9 -10 -9 -8 -9 -11 -12 -12 -13 -13 -14 -13 -13 -12 -10 -9 -8 -7 -7 -6 -6 -6 -4 -3 -3 -2 -2 -1 0
-11 -12 -13 -15 -12 -7 -11 -12 -13 -13 -11 -7 -9 -9 -12 -14 -15 -12 -10 -9 -9 -10 -10 -12 -13 -13 -13 -13 -12 -10 -10 -8 -8 -7 -7 -7 -7 -5 -3 -3 -3 -2 -1 -0
-10 -12 -15 -14 -11 -7 -9 -15 -15 -13 -12 -8 -9 -11 -11 -10 -12 -10 -9 -8 -9 -9 -11 -12 -13 -13 -13 -12 -12 -10 -10 -9 -8 -8 -7 -7 -6 -5 -4 -3 -3 -2 -2 -1
-10 -11 -16 -12 -14 -8 -13 -18 -14 -11 -14 -14 -10 -9 -10 -9 -10 -13 -12 -12 -12 -11 -11 -13 -14 -13 -13 -12 -11 -10 -10 -9 -9 -8 -7 -7 -7 -6 -4 -3 -3 -3 -2 -2
-11 -13 -13 -8 -12 -14 -16 -16 -13 -12 -11 -15 -15 -14 -12 -12 -13 -14 -14 -13 -12 -12 -14 -14 -13 -13 -13 -12 -11 -10 -10 -9 -9 -8 -7 -7 -7 -7 -4 -3 -3 -3 -4 -3
-11 -12 -12 -12 -9 -9 -15 -16 -16 -14 -9 -16 -15 -14 -13 -12 -9 -12 -13 -12 -14 -14 -15 -13 -13 -13 -12 -12 -11 -9 -9 -8 -8 -7 -7 -7 -7 -7 -5 -4 -4 -3 -3 -4
-13 -13 -9 -11 -8 -10 -16 -16 -14 -10 -12 -15 -15 -14 -13 -10 -10 -12 -12 -14 -15 -15 -14 -13 -13 -13 -12 -11 -10 -9 -8 -7 -7 -7 -7 -7 -7 -7 -6 -4 -4 -4 -4 -4
-12 -8 -7 -12 -9 -6 -16 -14 -11 -15 -15 -15 -15 -14 -12 -12 -13 -14 -15 -15 -15 -14 -13 -13 -13 -12 -11 -11 -9 -8 -8 -8 -8 -8 -7 -7 -7 -7 -7 -5 -4 -5 -4 -4
-9 -11 -8 -10 -13 -14 -15 -17 -16 -15 -15 -14 -14 -13 -12 -14 -14 -15 -15 -15 -14 -13 -12 -12 -12 -12 -11 -10 -9 -10 -10 -10 -9 -10 -9 -8 -7 -7 -7 -6 -5 -4 -5 -5
-13 -14 -12 -13 -15 -16 -15 -15 -15 -15 -15 -15 -14 -13 -14 -14 -15 -15 -14 -14 -13 -12 -12 -12 -12 -11 -11 -10 -11 -11 -11 -11 -10 -10 -11 -9 -7 -7 -7 -6 -6 -6 -6 -6
-13 -12 -11 -12 -13 -14 -15 -16 -15 -16 -15 -14 -14 -15 -15 -14 -15 -14 -14 -12 -12 -12 -12 -12 -11 -10 -11 -12 -12 -12 -12 -11 -11 -11 -11 -10 -8 -7 -7 -6 -6 -6 -6 -9
-11 -10 -10 -11 -15 -17 -16 -15 -15 -16 -15 -15 -16 -15 -14 -14 -14 -13 -12 -12 -12 -12 -12 -11 -10 -12 -12 -12 -12 -12 -12 -11 -11 -11 -11 -10 -9 -8 -7 -7 -7 -6 -7 -8
Wind_Speed
23 19 18 17 13 7 10 14 15 13 4 12 3 2 7 17 19 23 23 23 24 25 24 25 26 26 26 24 23 24 24 23 22 19 15 14 18 19 23 24 22 24 22 27
6 19 14 9 11 11 10 11 13 11 8 10 4 8 12 14 17 19 22 22 23 25 25 26 27 27 27 27 26 24 24 23 21 20 16 15 15 20 21 24 23 24 24 27
17 11 11 8 11 15 10 14 18 18 14 12 7 7 7 10 16 19 20 22 22 23 25 26 27 27 27 27 28 26 25 24 21 21 17 14 15 11 12 18 21 24 24 25
11 12 14 12 15 13 12 20 20 15 7 2 1 3 10 10 13 18 21 22 24 24 23 24 26 27 27 28 27 26 26 24 22 21 19 16 14 15 14 14 20 24 27 25
4 8 14 14 16 12 15 22 19 8 4 5 2 4 10 14 15 17 21 23 22 23 24 24 25 25 25 26 27 26 27 24 23 21 18 17 14 15 15 20 20 24 27 25
8 6 7 15 15 7 20 22 8 7 6 2 8 8 10 9 13 15 20 22 23 24 23 23 23 23 25 26 26 27 27 27 25 23 20 17 16 14 15 14 13 24 24 27
5 12 7 20 15 13 18 18 8 3 2 6 7 3 5 10 11 13 18 19 22 23 23 25 25 25 26 27 27 27 28 28 28 25 23 18 18 14 14 16 15 16 22 19
9 4 15 16 10 14 15 15 8 10 9 4 5 3 4 4 12 14 16 18 19 21 22 24 24 25 26 26 26 27 28 28 28 26 24 22 19 17 15 16 16 19 15 21
9 4 7 9 6 12 11 13 10 6 7 6 4 4 8 6 13 17 18 19 20 22 22 24 25 26 27 26 25 26 27 26 27 27 25 23 22 19 18 14 15 18 17 19
6 3 6 5 7 8 7 6 10 7 6 11 3 2 7 11 14 15 18 20 21 23 24 26 27 27 28 26 25 24 25 25 26 26 25 25 24 22 19 16 16 15 16 20
3 3 9 4 6 8 9 9 7 4 3 7 7 4 2 7 11 12 18 21 22 24 25 26 27 27 28 27 26 24 25 25 25 25 26 25 26 25 21 20 17 16 16 16
5 3 9 4 5 1 3 7 6 7 11 6 5 1 5 5 12 15 16 21 22 23 24 25 26 27 28 28 27 25 24 24 24 24 25 25 24 25 25 23 19 17 15 13
4 3 8 4 7 5 7 8 7 9 3 6 8 3 4 8 12 15 17 19 23 23 26 26 26 28 29 29 27 25 24 24 23 24 24 25 25 26 27 28 21 18 16 13
3 2 2 6 9 11 8 9 6 3 7 8 8 11 11 12 11 15 16 18 21 25 26 26 26 28 28 28 26 25 23 23 23 23 23 24 25 26 27 28 24 20 16 14
3 5 6 9 11 10 9 9 9 8 10 7 13 13 14 14 13 15 17 19 22 23 26 25 26 28 27 28 25 24 22 22 22 23 23 24 24 24 25 26 26 22 17 12
3 6 9 11 4 8 9 8 10 10 11 10 15 16 8 12 15 16 19 18 20 21 25 24 26 27 27 27 25 23 23 22 22 21 22 23 24 23 24 25 27 24 20 13
4 5 7 3 3 7 7 3 6 9 10 10 13 15 17 17 19 18 20 18 20 23 26 25 25 27 29 27 24 23 23 20 20 20 20 21 23 23 23 24 26 25 24 20
5 6 4 7 7 3 3 2 5 8 12 12 14 14 16 14 15 21 19 18 23 24 23 24 26 29 29 25 22 21 21 19 19 19 19 20 22 22 22 23 26 26 22 24
10 4 4 3 8 12 5 5 4 7 14 13 7 6 12 14 17 20 17 23 25 24 23 24 26 28 25 22 20 20 19 18 18 19 19 20 21 22 21 23 26 26 23 22
7 7 4 3 5 4 2 4 2 4 6 2 8 11 14 11 10 13 25 25 24 22 22 24 26 24 20 20 19 17 17 17 17 19 19 19 19 19 20 21 24 26 24 23
5 6 9 7 6 7 3 8 5 4 4 8 12 13 13 10 15 23 23 24 22 21 23 24 23 20 19 18 17 16 17 19 20 19 18 18 17 17 18 18 21 24 23 23
6 4 4 4 4 6 13 9 5 4 10 12 14 14 14 15 17 20 22 21 20 21 22 21 20 19 17 16 15 16 17 19 21 20 18 17 17 16 15 16 17 20 22 25
5 6 2 7 4 3 17 10 9 12 14 15 15 14 14 15 18 19 19 18 20 20 19 19 18 17 15 15 15 16 18 19 19 20 20 18 16 16 14 14 17 18 22 21
6 11 5 3 7 19 16 16 13 11 12 12 11 11 11 15 16 15 16 18 17 17 17 17 16 16 15 15 16 16 18 19 18 19 18 18 17 17 15 13 14 17 19 21
7 10 9 11 17 11 14 16 12 9 8 6 6 9 11 11 13 14 16 14 15 15 15 15 15 15 15 17 17 17 18 19 19 18 16 15 15 16 16 15 14 14 16 20
17 10 7 4 7 8 5 12 10 8 7 5 7 8 9 9 12 12 11 12 13 13 14 13 12 14 16 16 16 17 18 17 17 17 15 13 13 15 15 15 15 15 17 18
Wind_Direction
40 54 31 28 34 358 316 317 316 349 21 332 346 357 26 17 9 2 5 4 0 360 355 355 355 355 355 353 353 354 350 346 346 340 322 274 244 249 249 259 259 255 259 254
72 47 25 33 19 350 338 330 340 314 255 328 316 57 48 27 17 11 360 359 360 357 357 358 357 357 358 355 354 354 352 348 348 344 335 319 290 246 257 250 256 263 256 249
65 33 15 10 20 349 339 351 330 313 305 269 246 92 55 51 28 15 9 357 358 360 356 358 358 357 357 356 356 354 352 349 347 341 335 312 292 264 254 245 248 268 259 256
54 36 16 21 11 347 324 340 317 307 284 271 24 141 58 20 30 23 8 6 357 357 360 360 360 359 358 356 354 355 353 351 348 342 339 337 321 290 261 238 238 241 254 253
60 30 22 19 357 345 335 315 304 307 244 203 69 246 55 32 8 6 4 360 1 355 355 358 360 0 357 356 356 355 355 353 351 344 340 335 319 299 285 253 256 248 254 260
70 75 28 3 343 11 339 330 255 216 177 161 6 290 63 14 4 355 358 356 355 356 354 356 356 357 358 356 356 356 357 355 352 348 336 336 325 305 295 267 256 239 246 255
151 50 50 8 353 354 9 358 342 306 311 32 3 21 44 357 355 353 351 354 352 352 355 358 359 357 355 353 354 354 356 356 354 349 342 331 329 318 302 295 272 249 222 245
359 2 11 358 13 330 10 10 13 309 343 1 107 35 95 355 351 355 352 349 350 350 352 355 356 356 354 352 352 353 354 354 354 351 346 337 327 321 312 301 280 258 239 222
348 70 7 24 5 6 343 10 312 288 256 278 85 133 212 327 353 352 353 349 350 350 350 352 353 355 355 353 351 351 352 351 352 351 349 345 336 325 317 301 294 277 263 237
23 328 57 43 330 29 2 358 347 340 326 319 111 198 12 349 345 348 350 350 349 351 351 351 352 351 351 351 347 347 350 349 348 350 349 347 345 334 319 309 300 293 271 252
346 312 358 215 24 360 8 10 336 279 359 318 322 53 121 347 336 340 346 349 350 349 349 348 349 348 347 347 346 344 345 347 347 348 348 347 348 347 336 319 309 298 283 264
15 315 322 3 151 12 347 342 360 338 347 335 274 345 38 333 338 344 345 346 346 347 347 345 345 346 346 345 344 344 343 344 344 345 346 347 348 349 348 337 317 306 292 273
14 1 317 154 173 208 5 325 320 324 231 296 298 30 352 345 338 338 339 342 340 340 346 344 342 345 344 343 343 343 343 344 344 343 345 346 349 349 350 347 339 319 300 282
276 297 325 323 306 311 306 319 306 287 284 334 295 319 318 325 321 318 320 324 332 337 339 340 339 342 342 341 340 341 342 341 343 343 344 346 348 350 348 347 351 338 318 291
283 294 319 296 295 316 294 287 286 274 271 271 314 301 298 303 303 302 307 312 327 332 334 335 335 339 339 339 339 338 338 338 340 341 343 346 347 351 349 349 0 358 342 312
213 289 311 294 13 312 285 263 267 268 254 253 270 274 299 292 296 314 311 313 324 326 328 329 333 336 338 338 335 334 333 334 337 337 339 343 346 351 352 351 6 6 6 349
262 299 318 294 321 292 252 222 266 265 250 244 275 303 317 308 307 304 305 303 319 323 328 329 331 335 336 334 333 330 330 330 334 337 339 342 345 351 353 353 10 15 20 14
261 273 290 294 309 264 92 271 226 265 280 274 251 274 295 300 292 299 309 318 330 325 325 327 330 332 333 332 332 331 333 333 334 337 340 344 347 349 354 355 13 17 23 19
226 271 292 280 301 281 279 201 229 273 295 293 319 331 304 309 307 300 341 333 327 325 327 326 328 329 331 333 334 335 338 340 340 340 342 345 346 349 353 356 7 24 25 23
205 244 255 273 293 271 70 164 221 281 260 87 299 308 314 322 304 326 328 326 325 327 326 327 329 331 335 337 340 343 345 346 346 344 344 345 347 349 352 356 7 25 28 34
203 224 239 250 256 272 221 168 183 253 28 325 309 310 316 315 306 308 319 323 326 326 327 328 331 335 339 341 344 348 350 350 346 344 347 349 349 352 354 356 0 27 28 34
223 205 211 215 249 267 158 160 220 334 307 304 309 310 312 307 308 314 321 325 326 328 329 332 333 336 340 342 343 347 351 351 351 351 351 353 354 355 356 359 1 10 19 30
240 215 260 220 242 136 193 231 257 275 286 299 300 305 306 307 314 319 322 325 327 328 330 331 332 335 341 342 346 348 345 346 349 350 353 352 356 358 359 0 6 7 13 12
232 222 236 260 238 238 226 237 260 266 282 294 298 302 305 310 317 321 324 326 329 332 333 333 333 333 334 338 342 337 336 338 342 342 348 352 354 359 2 4 6 9 11 15
253 169 229 246 259 249 241 228 242 255 265 273 290 304 309 313 320 323 325 329 331 333 336 337 334 330 333 336 333 332 331 334 335 337 342 348 354 1 4 8 8 9 10 14
202 204 198 240 200 205 167 190 210 222 227 260 289 299 307 314 322 327 331 331 332 336 338 339 341 340 336 336 336 335 338 340 340 339 341 342 355 355 359 3 3 3 4 5
Height
1550 1545 1556 1564 1567 1566 1559 1550 1544 1545 1552 1554 1551 1552 1559 1563 1563 1560 1556 1553 1550 1546 1543 1538 1532 1527 1522 1518 1513 1507 1503 1497 1492 1489 1486 1486 1486 1489 1489 1492 1494 1496 1500 1501
1543 1560 1572 1571 1571 1566 1558 1554 1547 1548 1550 1553 1543 1551 1565 1569 1570 1567 1562 1557 1553 1549 1544 1540 1534 1529 1524 1518 1513 1508 1504 1499 1494 1491 1488 1486 1484 1485 1485 1489 1490 1493 1496 1498
1563 1577 1574 1571 1566 1566 1555 1553 1553 1551 1547 1546 1546 1559 1564 1570 1570 1570 1567 1562 1556 1551 1546 1542 1536 1531 1525 1520 1514 1509 1504 1499 1493 1489 1486 1484 1483 1482 1483 1484 1487 1489 1491 1494
1572 1578 1575 1568 1570 1570 1552 1558 1552 1542 1542 1531 1545 1554 1564 1564 1565 1568 1567 1564 1560 1553 1549 1544 1539 1533 1527 1522 1516 1510 1505 1500 1494 1488 1485 1482 1481 1479 1478 1479 1480 1482 1485 1489
1582 1579 1577 1572 1574 1572 1564 1556 1542 1539 1537 1539 1540 1543 1566 1569 1568 1568 1568 1564 1561 1557 1551 1545 1541 1535 1530 1524 1518 1512 1506 1501 1496 1490 1486 1482 1479 1477 1476 1476 1476 1479 1481 1483
1582 1584 1583 1582 1575 1571 1563 1547 1528 1534 1530 1537 1553 1547 1569 1577 1578 1573 1570 1567 1562 1557 1553 1548 1542 1537 1532 1526 1520 1514 1508 1502 1497 1492 1486 1482 1478 1475 1473 1472 1472 1473 1476 1478
1574 1580 1582 1584 1576 1570 1565 1553 1531 1527 1534 1544 1566 1560 1584 1582 1579 1576 1572 1568 1565 1560 1554 1549 1543 1538 1533 1527 1521 1514 1508 1503 1498 1493 1487 1482 1478 1474 1472 1470 1468 1468 1470 1474
1570 1568 1586 1587 1585 1582 1569 1564 1569 1569 1548 1550 1566 1576 1580 1581 1577 1575 1573 1569 1565 1561 1556 1550 1545 1540 1534 1528 1522 1515 1509 1504 1499 1494 1488 1482 1478 1473 1469 1467 1465 1465 1465 1468
1579 1579 1588 1590 1589 1587 1579 1572 1568 1571 1552 1551 1560 1577 1580 1575 1575 1574 1571 1568 1563 1559 1555 1550 1545 1539 1534 1528 1522 1517 1511 1506 1501 1495 1489 1483 1477 1472 1468 1464 1463 1461 1460 1462
1590 1576 1585 1591 1587 1585 1584 1582 1574 1564 1568 1559 1561 1569 1568 1577 1576 1573 1570 1566 1562 1558 1553 1549 1543 1538 1533 1528 1523 1517 1512 1507 1502 1496 1490 1484 1477 1471 1466 1463 1459 1458 1456 1457
1592 1587 1580 1580 1592 1589 1583 1580 1579 1572 1570 1571 1563 1561 1578 1580 1578 1573 1570 1566 1561 1557 1553 1549 1544 1539 1533 1528 1522 1517 1512 1507 1501 1496 1491 1485 1478 1472 1465 1460 1457 1454 1453 1452
1593 1588 1577 1582 1591 1591 1590 1587 1582 1581 1573 1567 1568 1567 1572 1576 1575 1572 1570 1567 1562 1558 1553 1549 1545 1539 1533 1527 1522 1516 1511 1506 1501 1497 1491 1485 1478 1471 1466 1459 1454 1451 1450 1448
1592 1583 1575 1567 1586 1584 1582 1586 1585 1583 1584 1580 1571 1565 1569 1570 1574 1572 1569 1567 1562 1557 1553 1548 1544 1539 1533 1526 1521 1515 1510 1506 1501 1496 1491 1485 1478 1471 1464 1459 1453 1449 1446 1444
1594 1588 1593 1585 1587 1581 1585 1583 1583 1590 1580 1578 1569 1568 1570 1569 1572 1571 1568 1565 1561 1556 1552 1548 1543 1538 1532 1526 1520 1514 1509 1505 1501 1496 1490 1484 1477 1471 1464 1458 1451 1445 1441 1439
1591 1583 1582 1582 1580 1577 1582 1584 1581 1582 1586 1585 1572 1575 1572 1571 1570 1568 1565 1562 1558 1553 1550 1546 1541 1536 1531 1525 1519 1514 1509 1504 1500 1495 1490 1484 1478 1471 1465 1458 1451 1445 1440 1437
1590 1581 1579 1576 1580 1585 1577 1576 1574 1573 1576 1585 1579 1571 1565 1566 1564 1563 1561 1558 1555 1551 1547 1543 1539 1534 1529 1524 1518 1513 1508 1503 1499 1494 1489 1484 1478 1471 1465 1459 1451 1445 1440 1435
1586 1581 1576 1569 1577 1582 1570 1570 1572 1570 1570 1575 1571 1564 1565 1565 1562 1560 1556 1554 1551 1548 1544 1540 1535 1530 1526 1521 1516 1511 1507 1502 1498 1494 1489 1484 1478 1472 1466 1461 1452 1446 1440 1435
1581 1580 1578 1571 1568 1568 1561 1566 1569 1570 1567 1564 1565 1563 1564 1562 1559 1555 1551 1549 1546 1543 1540 1536 1532 1527 1523 1518 1514 1509 1504 1500 1496 1492 1488 1483 1478 1472 1466 1461 1453 1447 1441 1437
1583 1579 1576 1578 1565 1553 1555 1562 1566 1566 1563 1560 1559 1561 1560 1558 1554 1548 1547 1546 1543 1539 1536 1532 1529 1524 1520 1515 1512 1507 1503 1499 1495 1491 1487 1482 1477 1471 1467 1461 1455 1448 1443 1438
1580 1581 1579 1570 1574 1557 1551 1560 1565 1565 1551 1556 1556 1555 1554 1553 1549 1544 1545 1542 1539 1535 1533 1529 1526 1521 1517 1513 1509 1506 1502 1498 1494 1490 1486 1481 1477 1472 1467 1462 1457 1451 1446 1440
1572 1572 1572 1564 1569 1552 1551 1559 1564 1557 1548 1553 1553 1551 1550 1550 1550 1545 1542 1538 1535 1533 1530 1526 1523 1519 1515 1512 1508 1504 1500 1497 1493 1488 1484 1481 1477 1472 1468 1464 1459 1452 1448 1443
1559 1565 1562 1563 1564 1556 1551 1558 1557 1548 1549 1549 1548 1547 1547 1546 1544 1540 1538 1535 1532 1529 1526 1523 1520 1517 1514 1510 1506 1503 1499 1495 1492 1487 1483 1480 1476 1472 1469 1465 1461 1455 1450 1445
1559 1553 1550 1553 1535 1543 1546 1545 1547 1547 1547 1546 1545 1544 1543 1542 1539 1537 1535 1532 1529 1527 1524 1521 1518 1515 1512 1509 1505 1503 1499 1495 1491 1487 1482 1478 1475 1472 1469 1466 1461 1458 1451 1448
1550 1552 1551 1550 1532 1536 1540 1542 1543 1543 1543 1543 1542 1542 1541 1539 1537 1534 1532 1529 1526 1524 1521 1518 1515 1513 1510 1507 1505 1502 1498 1494 1490 1487 1483 1478 1474 1470 1469 1465 1462 1459 1455 1450
1543 1548 1542 1534 1531 1534 1534 1536 1538 1539 1540 1540 1540 1540 1539 1537 1534 1532 1530 1527 1524 1522 1519 1517 1514 1511 1508 1506 1503 1499 1495 1491 1488 1485 1482 1479 1475 1472 1468 1465 1464 1462 1459 1454
1530 1528 1529 1519 1521 1524 1527 1531 1534 1536 1537 1538 1538 1537 1536 1535 1533 1530 1528 1526 1522 1519 1517 1514 1512 1510 1507 1504 1500 1497 1493 1489 1486 1483 1481 1479 1476 1474 1470 1467 1465 1463 1461 1458